Temperature
15 15 16 16 16 16 17 17 17 17 17 17 16 16 16 16 16 16 16 16 16 15 15 15 15 15 15 15 15 15 15 15 14 14 14 14 14 14 14 14 14 14 14
16 16 16 16 16 16 17 17 17 17 17 16 16 16 16 16 16 16 16 15 15 15 15 15 15 15 15 15 15 14 14 14 14 14 14 14 14 14 14 14 14 14 14
16 16 16 16 16 16 16 17 16 16 16 16 16 16 16 16 16 16 15 15 15 15 15 15 15 15 15 15 14 14 14 14 14 14 14 14 13 13 13 13 13 13 13
15 15 16 16 16 16 16 16 16 16 16 16 16 16 16 16 16 15 15 15 15 15 15 15 15 15 14 14 14 14 14 14 14 14 14 13 13 13 13 13 13 13 13
15 15 15 15 16 16 16 16 16 16 16 16 16 16 16 16 16 16 15 15 15 15 15 15 15 14 14 14 14 14 14 14 14 13 13 13 13 13 13 13 13 13 13
15 15 15 15 15 15 16 16 16 16 16 16 16 15 16 15 16 16 15 15 15 15 15 15 15 15 14 14 14 14 14 14 13 13 13 13 13 13 12 13 12 12 12
14 15 15 15 15 15 15 15 15 15 16 16 15 15 15 15 15 16 15 15 15 15 15 15 15 14 14 14 13 13 13 13 13 13 13 13 13 12 12 12 12 12 12
14 14 14 14 14 15 15 15 15 15 15 15 15 15 15 15 15 15 15 15 15 15 14 14 14 14 14 13 13 13 13 13 13 13 13 13 12 12 12 12 12 12 12
14 14 14 14 14 14 14 14 15 15 15 15 15 15 15 15 15 15 15 15 15 14 14 14 14 14 14 13 13 13 13 13 13 13 13 12 12 12 12 12 12 12 12
13 13 13 13 13 13 14 14 14 14 14 14 14 15 15 15 15 15 15 14 14 14 14 14 14 14 14 13 13 13 13 13 13 13 12 12 12 12 12 12 12 11 11
12 12 12 13 13 13 13 13 14 14 14 14 14 14 14 14 14 14 14 14 14 14 14 14 14 14 14 13 13 13 13 13 13 13 12 12 12 12 11 11 11 11 11
12 12 12 12 12 13 13 13 13 13 13 14 14 14 14 14 14 14 14 14 14 14 14 14 14 13 13 13 13 13 13 12 12 12 12 12 12 11 11 11 11 11 11
11 11 12 12 12 12 12 12 13 13 13 13 13 13 13 14 14 14 14 14 14 14 14 14 13 13 13 13 13 13 12 12 12 12 12 12 11 11 11 11 11 11 10
11 11 11 11 12 12 12 12 12 12 12 13 13 13 13 13 13 13 13 13 13 13 13 13 13 13 13 13 13 13 12 12 12 12 12 12 11 11 11 11 10 10 10
10 11 11 11 11 11 11 12 12 12 12 12 12 12 12 13 13 13 13 13 13 13 13 13 13 13 13 12 12 12 12 12 12 12 12 11 11 11 11 11 10 10 10
10 10 10 10 11 11 11 11 11 11 11 12 12 12 12 12 12 12 12 12 13 13 13 13 13 12 12 12 12 12 12 12 12 11 11 11 11 11 11 11 10 10 10
10 10 10 10 10 10 10 11 11 11 11 11 11 11 11 11 12 12 12 12 12 12 13 12 12 12 12 12 12 12 12 11 11 11 11 11 11 11 11 10 10 10 9
10 10 9 9 9 10 10 10 10 10 10 10 11 11 11 11 11 11 12 12 12 12 12 12 12 12 12 12 12 11 11 11 11 11 11 11 10 10 10 10 10 10 9
9 9 9 9 9 9 10 10 10 10 10 10 10 10 11 11 11 11 11 11 11 11 12 12 12 12 12 12 11 11 11 11 11 10 10 10 10 10 10 10 9 9 9
9 9 9 9 9 9 9 9 9 9 10 10 10 10 10 10 10 10 11 11 11 11 11 11 11 11 11 11 11 11 11 10 10 10 10 10 10 10 10 9 9 9 9
8 8 9 9 8 8 9 9 9 9 9 9 9 10 10 10 10 10 10 10 11 11 11 11 11 11 11 11 11 10 10 10 10 10 10 9 9 9 9 9 9 9 9
8 8 8 8 8 8 8 8 8 8 8 9 9 9 9 9 10 10 10 10 10 10 10 10 10 10 10 10 10 10 9 9 9 10 9 9 9 9 9 9 9 9 8
8 8 8 8 8 8 8 8 8 8 8 8 8 9 9 9 9 9 9 9 10 10 10 10 10 10 10 10 10 9 9 9 8 9 9 9 9 9 8 8 8 8 8
7 7 7 7 7 7 7 7 8 7 8 8 8 8 8 8 8 9 9 9 9 9 9 9 9 9 9 9 9 9 9 9 8 8 8 8 8 8 8 8 8 8 8
7 7 7 7 7 7 7 7 7 7 7 7 7 7 7 8 8 8 8 8 8 8 9 9 9 9 9 9 9 9 8 8 8 8 7 8 8 8 8 7 7 7 7
6 6 6 6 7 7 7 7 7 7 7 7 7 7 7 7 7 7 7 7 8 8 8 8 8 8 8 8 8 8 8 8 8 7 7 7 7 7 7 7 7 7 7
Wind_Speed
3 3 5 6 7 8 8 9 9 8 9 9 9 10 10 11 11 12 12 11 11 11 11 11 11 12 12 12 12 12 12 12 12 12 12 12 13 12 12 11 11 10 10
5 5 7 6 7 8 9 9 9 9 8 9 9 9 10 10 10 10 10 11 11 11 11 11 11 12 12 12 12 12 12 12 12 12 12 11 11 12 12 11 10 9 10
6 6 7 7 7 8 8 9 8 9 8 8 9 9 9 10 10 10 10 10 10 11 11 11 11 11 11 11 11 11 11 12 12 12 11 9 9 10 10 10 10 10 9
8 7 6 7 8 8 8 8 8 8 8 8 8 8 8 9 10 10 9 9 10 10 10 10 10 11 10 10 10 10 11 11 11 11 9 8 7 9 10 10 10 9 9
7 7 7 8 8 8 8 8 8 8 8 7 7 8 8 8 9 9 9 9 9 10 10 10 10 10 10 9 9 9 10 10 10 10 8 7 6 8 9 9 9 9 8
6 7 8 8 8 8 8 8 8 8 7 7 7 7 8 8 8 8 8 9 9 9 10 10 9 9 9 8 8 8 9 9 10 9 8 7 5 7 8 8 8 8 8
5 6 8 8 8 8 8 8 8 7 7 7 7 7 7 7 7 7 7 8 9 9 9 9 9 9 8 8 8 8 8 9 9 8 7 5 5 7 7 7 7 7 6
6 6 7 7 8 8 7 7 7 8 7 7 7 6 6 6 6 7 7 7 8 8 9 9 8 8 8 7 7 7 8 8 7 6 5 4 5 6 7 7 6 6 6
7 6 6 6 6 7 7 7 7 7 7 7 7 6 6 6 5 6 6 7 7 7 8 8 7 8 7 6 6 7 7 8 7 5 4 3 4 5 6 5 5 5 5
6 5 5 6 6 5 6 6 6 6 7 7 7 6 6 6 5 5 5 6 6 7 7 7 7 7 6 6 6 6 7 8 7 5 4 3 4 5 5 5 5 5 5
4 3 4 4 5 5 5 5 5 5 6 6 6 6 6 5 5 4 5 5 6 6 6 7 6 6 5 5 5 6 6 6 6 4 3 3 4 4 5 5 5 5 5
2 2 3 3 4 4 4 5 5 5 5 6 6 6 5 5 4 4 4 5 5 6 5 5 6 5 4 3 4 5 5 5 5 3 3 3 4 4 4 4 4 4 5
3 2 2 2 3 4 3 4 4 5 5 5 5 5 5 5 4 4 4 4 4 4 4 3 4 3 3 2 3 4 5 5 4 3 2 3 3 3 4 3 3 3 4
3 2 1 2 3 3 3 3 3 4 4 4 4 4 4 3 3 3 3 2 3 3 3 3 2 3 3 3 3 4 4 4 3 3 3 3 3 2 3 3 3 3 3
3 2 1 2 3 2 3 3 3 3 3 3 4 4 3 2 1 2 2 2 2 3 3 2 2 2 2 2 2 3 3 3 4 4 3 3 2 2 2 2 3 3 3
3 2 1 2 2 3 2 2 3 3 3 3 4 4 3 3 2 2 1 2 2 2 2 3 3 2 1 1 1 2 3 3 3 4 4 3 2 2 2 2 3 4 4
4 3 2 2 2 2 2 2 3 3 4 3 3 3 3 3 3 2 2 1 2 2 3 3 3 3 2 2 1 1 2 2 3 4 4 3 2 1 1 2 3 4 5
4 4 3 2 2 2 2 2 2 3 4 3 3 3 3 3 3 3 2 1 2 3 3 2 2 2 1 1 0 0 1 1 2 4 4 3 2 1 1 2 3 4 5
5 5 3 2 2 1 1 2 2 3 3 3 4 3 3 3 3 3 2 2 3 3 2 1 2 2 2 1 1 1 1 1 2 2 2 2 2 1 1 1 2 3 4
4 4 4 3 2 1 1 2 2 2 2 3 3 3 3 3 3 3 2 3 3 2 1 1 1 1 1 1 1 0 0 1 1 1 1 1 1 1 1 1 1 2 4
3 3 3 3 2 2 1 1 1 1 1 1 2 3 4 3 3 3 2 2 2 2 1 1 1 2 1 1 2 1 1 1 1 1 1 1 0 0 0 1 1 2 3
2 3 2 2 2 1 1 1 1 1 0 1 2 3 3 3 3 2 2 1 2 2 2 1 1 1 1 1 2 2 0 2 1 1 1 1 1 1 1 1 1 1 2
0 2 3 2 2 1 1 1 2 2 2 2 1 1 2 3 3 2 2 1 1 1 1 1 1 2 2 0 1 2 2 2 2 1 1 1 1 1 1 2 2 1 2
1 1 2 2 2 2 2 2 3 2 1 0 0 1 2 3 3 3 2 2 1 1 1 0 1 0 2 1 0 0 1 2 1 1 2 1 1 2 2 2 2 2 3
1 1 1 2 2 2 2 3 3 2 1 1 1 2 2 3 4 3 2 2 2 1 1 1 1 1 0 1 1 0 1 1 1 1 2 2 2 2 3 2 2 2 3
2 1 1 1 2 2 2 2 3 3 2 2 2 2 2 2 2 3 3 2 3 2 1 1 1 1 1 0 0 0 1 1 1 1 1 2 3 3 2 2 2 2 2
Wind_Direction
175 153 130 118 107 100 95 88 86 95 102 105 114 115 113 112 113 115 117 119 118 115 112 107 103 100 96 96 94 92 89 89 88 83 82 81 81 79 75 70 67 64 65
156 140 129 121 112 107 101 95 88 90 96 104 110 118 118 115 114 115 117 119 117 115 112 107 104 102 99 98 95 93 91 89 87 82 79 77 80 80 76 72 69 67 65
128 126 126 120 115 110 105 99 95 90 94 101 110 116 122 120 118 120 119 119 117 114 111 107 106 103 101 99 96 94 92 88 87 83 76 68 75 79 76 73 69 66 64
121 117 121 116 115 112 109 104 101 97 94 100 108 113 117 124 123 121 121 119 118 115 113 109 108 107 106 103 100 97 94 90 89 86 72 65 72 81 79 76 71 67 64
112 113 117 115 114 113 110 107 104 100 95 98 104 110 112 117 127 127 126 126 122 119 117 114 112 111 109 107 104 100 96 91 92 82 71 68 74 84 81 78 74 70 67
102 107 115 115 114 109 106 105 104 100 99 95 102 105 109 115 116 128 129 132 129 126 123 120 116 115 114 113 108 102 100 94 92 81 74 74 80 86 83 80 76 71 66
94 95 113 116 114 110 107 106 104 99 97 94 98 106 110 114 118 121 132 137 135 132 129 126 121 121 119 116 109 101 100 98 96 87 78 78 88 88 84 79 74 68 61
99 84 97 113 113 111 109 106 102 99 95 93 91 101 110 116 121 123 131 136 138 138 135 131 128 129 126 118 109 103 99 102 102 93 79 83 96 92 87 81 72 65 61
87 79 75 91 102 108 108 107 105 100 96 94 89 96 99 104 107 120 129 132 136 135 136 137 135 136 133 122 114 106 100 103 104 95 83 82 98 96 89 80 70 60 51
79 72 71 82 87 92 103 108 104 103 100 95 88 87 95 99 103 103 112 132 131 133 136 139 139 139 135 126 118 109 104 105 108 96 85 86 101 98 88 78 66 51 40
80 73 66 73 74 84 102 107 102 101 96 92 88 83 85 88 95 97 99 116 131 128 138 137 136 134 131 124 119 113 109 109 114 102 98 96 105 100 90 77 62 51 43
111 90 78 76 80 77 89 87 84 85 82 77 80 79 80 81 91 96 100 103 120 120 126 136 133 126 119 110 117 115 113 115 120 114 108 99 102 98 85 75 61 48 38
148 121 100 72 76 73 69 82 76 72 72 74 74 72 76 74 77 76 72 73 89 102 95 118 119 112 104 107 117 117 122 118 123 123 116 105 95 88 76 64 52 38 30
132 117 84 79 76 69 75 83 84 76 70 69 73 71 79 74 67 72 69 63 62 82 84 82 90 99 91 98 116 119 122 123 132 130 130 112 91 72 61 51 36 24 17
144 137 124 87 85 80 78 77 82 78 76 76 71 67 78 87 79 80 77 60 62 61 91 93 96 99 92 79 104 119 122 124 135 136 134 125 106 78 54 36 19 14 12
151 147 140 118 86 82 88 87 90 87 85 78 72 70 71 88 86 92 93 60 51 66 83 116 114 113 109 88 86 116 126 124 131 136 134 134 119 97 57 29 5 356 1
161 152 143 127 87 83 95 88 82 86 87 76 68 77 76 84 87 84 95 74 42 68 82 93 94 91 91 79 75 117 127 131 137 141 137 131 125 113 51 12 354 351 354
149 148 146 124 101 86 75 72 70 78 80 71 69 72 75 78 91 87 94 75 49 59 77 103 129 126 114 99 132 178 128 130 143 143 138 129 123 109 46 8 352 351 350
150 149 139 124 123 123 67 78 74 83 75 68 65 63 72 72 82 80 97 84 73 60 70 120 135 147 147 130 189 175 156 156 166 136 132 128 122 107 70 355 346 349 348
142 142 137 126 115 107 78 78 84 73 64 62 60 58 69 70 81 75 90 91 87 83 53 78 110 125 154 170 146 95 138 165 146 143 153 127 108 94 63 13 348 331 338
120 128 131 123 122 115 128 133 117 94 80 57 49 53 60 64 71 65 69 101 100 119 112 105 120 131 103 115 99 49 357 40 126 163 177 167 112 23 48 3 340 339 333
124 142 139 143 145 147 174 181 167 148 116 79 43 47 49 51 56 70 71 82 107 115 102 80 108 127 109 107 126 130 348 337 336 279 231 210 223 314 326 304 296 318 329
118 173 167 175 165 165 159 114 86 65 45 34 28 36 20 37 39 44 65 69 95 122 135 124 139 139 160 161 114 135 150 219 297 296 245 236 264 272 292 284 287 294 309
281 181 171 173 168 160 149 140 137 134 127 251 218 67 24 34 37 34 46 57 76 90 120 148 69 156 153 180 184 84 138 148 162 288 299 276 269 262 267 283 285 276 295
357 86 146 162 154 142 141 150 146 140 119 98 82 62 37 21 19 24 37 52 55 61 90 77 37 29 138 178 165 143 84 74 120 183 267 298 302 268 253 260 279 279 297
17 31 84 147 130 122 126 136 139 138 123 111 79 73 29 11 9 14 25 44 44 38 50 70 54 45 18 33 69 100 148 154 185 179 246 280 291 287 282 278 269 278 292
Height
1524 1525 1526 1527 1527 1527 1527 1528 1528 1528 1529 1529 1530 1530 1531 1531 1532 1532 1532 1532 1532 1533 1533 1533 1533 1533 1533 1533 1533 1533 1532 1532 1532 1532 1532 1532 1531 1531 1531 1530 1530 1529 1529
1523 1524 1525 1526 1527 1527 1527 1527 1528 1528 1529 1529 1529 1530 1530 1531 1532 1532 1532 1532 1533 1533 1533 1533 1533 1533 1533 1533 1533 1533 1533 1533 1532 1532 1532 1532 1532 1532 1531 1531 1530 1530 1529
1522 1524 1525 1525 1526 1526 1527 1527 1527 1528 1528 1529 1529 1530 1530 1531 1531 1531 1532 1532 1533 1533 1533 1533 1533 1533 1533 1533 1533 1533 1533 1533 1533 1533 1533 1533 1532 1532 1531 1531 1530 1530 1529
1522 1523 1524 1525 1525 1526 1526 1526 1527 1527 1528 1528 1529 1529 1530 1530 1530 1531 1531 1532 1532 1533 1533 1533 1533 1533 1533 1533 1534 1534 1534 1533 1533 1533 1533 1533 1533 1532 1532 1531 1531 1530 1529
1522 1523 1523 1524 1524 1525 1525 1526 1526 1527 1527 1528 1528 1529 1529 1529 1530 1530 1531 1531 1532 1532 1533 1533 1533 1533 1533 1534 1534 1534 1534 1534 1534 1534 1534 1533 1533 1533 1532 1531 1531 1530 1529
1521 1522 1522 1523 1524 1524 1524 1525 1525 1526 1527 1527 1528 1528 1528 1528 1529 1529 1530 1531 1531 1531 1532 1532 1533 1533 1533 1533 1534 1534 1534 1534 1534 1534 1534 1534 1533 1533 1532 1532 1531 1530 1530
1520 1521 1522 1522 1523 1523 1523 1524 1524 1525 1526 1526 1527 1527 1527 1528 1528 1528 1529 1530 1531 1531 1531 1532 1532 1533 1533 1533 1534 1534 1534 1534 1534 1534 1534 1534 1533 1533 1532 1532 1531 1530 1529
1519 1520 1520 1521 1522 1522 1522 1523 1523 1524 1524 1525 1525 1526 1527 1527 1528 1528 1529 1529 1530 1530 1531 1531 1532 1532 1533 1533 1533 1534 1534 1534 1534 1534 1534 1534 1533 1533 1532 1532 1531 1530 1529
1519 1520 1520 1520 1521 1521 1522 1522 1522 1523 1523 1524 1524 1525 1525 1526 1526 1527 1527 1528 1529 1530 1530 1531 1531 1532 1532 1533 1533 1533 1533 1534 1534 1534 1534 1533 1533 1533 1532 1531 1531 1530 1529
1518 1519 1519 1519 1520 1520 1521 1521 1521 1521 1522 1522 1523 1523 1524 1525 1525 1526 1527 1527 1528 1528 1529 1530 1530 1531 1531 1532 1533 1533 1533 1533 1534 1533 1533 1533 1533 1532 1532 1531 1530 1529 1528
1517 1517 1518 1518 1519 1519 1519 1520 1520 1520 1520 1520 1521 1521 1522 1523 1524 1525 1525 1526 1527 1527 1528 1528 1529 1530 1530 1531 1532 1532 1533 1533 1533 1533 1533 1533 1532 1532 1531 1530 1529 1528 1527
1515 1516 1517 1517 1517 1518 1518 1518 1518 1519 1519 1519 1519 1520 1520 1521 1522 1523 1524 1524 1525 1526 1526 1527 1527 1529 1530 1530 1531 1531 1532 1532 1532 1532 1532 1532 1531 1531 1530 1529 1528 1527 1526
1514 1515 1515 1516 1516 1516 1516 1517 1517 1517 1517 1518 1518 1518 1519 1519 1520 1521 1522 1522 1523 1524 1525 1526 1526 1527 1528 1529 1529 1530 1530 1531 1531 1531 1531 1531 1530 1530 1529 1528 1527 1526 1525
1512 1513 1513 1514 1514 1515 1515 1515 1515 1515 1515 1516 1516 1517 1517 1517 1518 1519 1519 1520 1521 1522 1523 1524 1524 1525 1527 1528 1528 1529 1529 1529 1530 1530 1530 1530 1529 1529 1528 1527 1526 1525 1524
1510 1511 1512 1512 1512 1513 1512 1513 1514 1514 1514 1514 1514 1515 1516 1515 1516 1517 1517 1518 1519 1520 1521 1523 1523 1524 1526 1526 1527 1528 1528 1528 1528 1528 1528 1528 1528 1527 1527 1526 1525 1523 1522
1508 1509 1510 1510 1510 1511 1511 1511 1512 1512 1512 1513 1513 1513 1514 1514 1515 1516 1516 1517 1518 1518 1519 1521 1521 1523 1524 1525 1525 1526 1526 1527 1527 1527 1527 1527 1526 1526 1525 1524 1523 1522 1521
1507 1508 1508 1508 1509 1509 1510 1510 1510 1510 1511 1511 1512 1512 1512 1512 1513 1514 1515 1515 1516 1516 1517 1518 1520 1521 1522 1523 1524 1524 1525 1525 1525 1525 1525 1525 1525 1524 1523 1522 1521 1520 1519
1505 1506 1506 1507 1507 1507 1508 1508 1508 1509 1509 1509 1510 1510 1510 1510 1511 1512 1513 1513 1514 1514 1515 1516 1518 1519 1520 1521 1522 1522 1523 1523 1523 1523 1523 1523 1523 1522 1521 1521 1519 1518 1517
1503 1504 1505 1505 1505 1506 1506 1507 1507 1507 1507 1508 1508 1508 1509 1509 1509 1510 1510 1511 1512 1512 1513 1514 1515 1516 1517 1518 1519 1520 1520 1521 1521 1521 1521 1521 1521 1520 1520 1519 1518 1516 1515
1502 1503 1503 1503 1504 1504 1504 1505 1505 1505 1506 1506 1507 1507 1507 1507 1508 1508 1508 1509 1510 1511 1511 1512 1512 1514 1515 1516 1517 1518 1518 1519 1519 1519 1519 1519 1519 1519 1518 1517 1515 1514 1513
1501 1501 1501 1502 1502 1502 1502 1502 1503 1503 1503 1504 1505 1505 1505 1506 1505 1506 1506 1507 1508 1508 1509 1509 1510 1511 1512 1513 1515 1515 1516 1516 1517 1517 1517 1517 1517 1516 1515 1514 1513 1512 1510
1499 1500 1500 1500 1501 1501 1501 1501 1501 1502 1502 1502 1503 1503 1504 1504 1504 1504 1504 1505 1505 1506 1507 1508 1508 1508 1509 1511 1511 1512 1513 1514 1513 1514 1514 1514 1514 1514 1513 1512 1511 1510 1508
1498 1498 1499 1499 1500 1500 1500 1500 1500 1500 1500 1500 1500 1501 1501 1502 1502 1502 1503 1503 1503 1504 1505 1505 1506 1506 1506 1508 1509 1510 1510 1509 1510 1511 1511 1511 1511 1511 1510 1509 1508 1507 1505
1497 1497 1497 1498 1498 1498 1498 1498 1498 1497 1497 1498 1498 1498 1499 1500 1499 1500 1500 1501 1502 1503 1503 1503 1504 1504 1504 1505 1506 1507 1508 1507 1508 1507 1508 1508 1508 1508 1507 1506 1505 1504 1502
1496 1495 1495 1496 1496 1496 1495 1496 1496 1496 1496 1497 1497 1496 1497 1498 1498 1498 1498 1498 1499 1500 1501 1501 1502 1502 1502 1503 1503 1504 1504 1505 1505 1505 1504 1504 1505 1505 1504 1503 1502 1501 1499
1495 1494 1494 1494 1494 1494 1494 1494 1494 1494 1495 1495 1495 1495 1495 1495 1496 1496 1496 1496 1496 1498 1499 1499 1500 1500 1500 1500 1501 1501 1501 1502 1502 1502 1501 1501 1501 1501 1500 1500 1499 1498 1496